Van Nuys, CA

12:19 PM PST on January 19, 2018 (GMT -0800)
Van Nuys

Weather History for KVNY - September, 2013

Change the Weather History Date:

Monday, September 16, 2013

  Actual Average Record
Temperature  
Mean Temperature 82 °F -  
Max Temperature 100 °F 86 °F 106 °F (2000)
Min Temperature 66 °F 60 °F 53 °F (2006)
Cooling Degree Days 18    
Growing Degree Days 32 (Base 50)    
Moisture  
Dew Point 50 °F    
Average Humidity 39    
Maximum Humidity 66    
Minimum Humidity 13    
Precipitation  
Precipitation 0.00 in - - ()
Sea Level Pressure  
Sea Level Pressure 29.75 in    
Wind  
Wind Speed 1 mph (West)    
Max Wind Speed 10 mph    
Max Gust Speed -    
Visibility 10 miles    
Events      
Averages and records for this station are not official NWS values.
T = Trace of Precipitation, MM = Missing Value Source: NWS Daily Summary

Daily Weather History Graph

Daily Weather History Graph

Search for Another Location

Airport or City:

Trip Planner

Search our weather history database for the weather conditions in past years. The results will help you decide how hot, cold, wet, or windy it might be!

Date:

Astronomy

Sep. 16, 2013 Rise Set
Actual Time 6:38 AM PDT 6:58 PM PDT
Civil Twilight 6:12 AM PDT 7:23 PM PDT
Nautical Twilight 5:43 AM PDT 7:53 PM PDT
Astronomical Twilight 5:13 AM PDT 8:22 PM PDT
Moon 5:06 PM PDT (9/16) 3:36 AM PDT (9/16)
Length of Visible Light 13h 10m
Length of Day
12h 20m
Waxing Gibbous, 91% of the Moon is Illuminated
Sep 16
Waxing Gibbous
Sep 19
Full
Sep 26
Last Quarter
Oct 4
New
Oct 11
First Quarter

Hourly Weather History & Observations

Time (PDT) Temp. Heat Index Dew Point Humidity Pressure Visibility Wind Dir Wind Speed Gust Speed Precip Events Conditions
12:51 AM 73.9 °F - 57.0 °F 55% 29.75 in 10.0 mi Calm Calm - N/A   Clear
1:51 AM 73.0 °F - 57.0 °F 57% 29.75 in 10.0 mi Calm Calm - N/A   Clear
2:51 AM 70.0 °F - 57.0 °F 63% 29.75 in 10.0 mi Calm Calm - N/A   Clear
3:51 AM 70.0 °F - 54.0 °F 57% 29.75 in 10.0 mi Calm Calm - N/A   Clear
4:51 AM 69.1 °F - 54.0 °F 58% 29.76 in 10.0 mi Calm Calm - N/A   Clear
5:51 AM 68.0 °F - 55.9 °F 65% 29.78 in 10.0 mi Calm Calm - N/A   Clear
6:51 AM 66.9 °F - 55.0 °F 66% 29.79 in 10.0 mi Calm Calm - N/A   Clear
7:51 AM 70.0 °F - 55.0 °F 59% 29.81 in 10.0 mi Calm Calm - N/A   Clear
8:51 AM 75.9 °F - 55.0 °F 48% 29.81 in 10.0 mi Calm Calm - N/A   Clear
9:51 AM 81.0 °F 80.7 °F 55.0 °F 41% 29.81 in 10.0 mi Calm Calm - N/A   Clear
10:51 AM 87.1 °F - 50.0 °F 28% 29.80 in 10.0 mi Calm Calm - N/A   Clear
11:51 AM 93.0 °F - 43.0 °F 18% 29.78 in 10.0 mi Calm Calm - N/A   Clear
12:51 PM 98.1 °F - 39.0 °F 13% 29.76 in 10.0 mi Variable 3.5 mph - N/A   Clear
1:51 PM 99.0 °F - 42.1 °F 14% 29.73 in 10.0 mi SE 4.6 mph - N/A   Clear
2:51 PM 99.0 °F - 41.0 °F 14% 29.70 in 10.0 mi WNW 6.9 mph - N/A   Clear
3:51 PM 99.0 °F - 39.9 °F 13% 29.70 in 10.0 mi West 8.1 mph - N/A   Clear
4:51 PM 97.0 °F - 39.9 °F 14% 29.69 in 10.0 mi WNW 10.4 mph - N/A   Clear
5:51 PM 93.9 °F - 39.9 °F 15% 29.70 in 10.0 mi WNW 8.1 mph - N/A   Clear
6:51 PM 88.0 °F - 44.1 °F 22% 29.70 in 10.0 mi WNW 4.6 mph - N/A   Clear
7:51 PM 84.9 °F - 41.0 °F 21% 29.73 in 10.0 mi Calm Calm - N/A   Clear
8:51 PM 80.1 °F 79.9 °F 53.1 °F 39% 29.75 in 10.0 mi Calm Calm - N/A   Clear
9:51 PM 75.0 °F - 55.0 °F 50% 29.76 in 10.0 mi SSE 3.5 mph - N/A   Clear
10:51 PM 73.0 °F - 55.9 °F 55% 29.77 in 10.0 mi East 5.8 mph - N/A   Clear
11:51 PM 71.1 °F - 55.9 °F 59% 29.77 in 10.0 mi East 3.5 mph - N/A   Clear